| time (UTC) | temp F | wind direction | speed MPH | gust MPH | rain 1hr in | rain 24hr in | rain mn in | humidity % | barometer mb |
| 20260903184336 | 86 | 168 | 3.0 | 5.0 | 0.00 | 0.00 | 0.00 | 74 | 1013.7 |
| 20260903181331 | 85 | 186 | 3.0 | 5.0 | 0.00 | 0.00 | 0.00 | 76 | 1013.9 |
| 20260903174326 | 83 | 186 | 4.0 | 6.0 | 0.00 | 0.00 | 0.00 | 79 | 1014.4 |
| 20260903171326 | 83 | 201 | 3.0 | 5.0 | 0.00 | 0.00 | 0.00 | 82 | 1014.4 |
| 20260903164326 | 84 | 205 | 2.0 | 2.0 | 0.00 | 0.00 | 0.00 | 82 | 1014.6 |
| 20260903161323 | 83 | 248 | 1.0 | 1.0 | 0.00 | 0.00 | 0.00 | 85 | 1014.2 |
| 20260903154320 | 81 | 148 | 2.0 | 3.0 | 0.00 | 0.00 | 0.00 | 88 | 1014.2 |
| 20260903151317 | 81 | 178 | 3.0 | 3.0 | 0.00 | 0.00 | 0.00 | 89 | 1014.0 |
| 20260903144314 | 81 | 213 | 2.0 | 2.0 | 0.00 | 0.00 | 0.00 | 89 | 1014.4 |
| 20260903141312 | 80 | 279 | 0.0 | 0.0 | 0.00 | 0.00 | 0.00 | 90 | 1014.2 |
| 20260903134310 | 79 | 66 | 1.0 | 1.0 | 0.00 | 0.00 | 0.00 | 91 | 1014.9 |
| 20260903131305 | 79 | 96 | 2.0 | 2.0 | 0.00 | 0.00 | 0.00 | 91 | 1014.1 |
| 20260903124301 | 79 | 280 | 0.0 | 0.0 | 0.00 | 0.00 | 0.00 | 91 | 1013.9 |
| 20260903121259 | 79 | 77 | 1.0 | 1.0 | 0.00 | 0.00 | 0.00 | 90 | 1013.9 |
| 20260903114255 | 79 | 8 | 1.0 | 1.0 | 0.00 | 0.00 | 0.00 | 90 | 1013.4 |
| 20260903111254 | 78 | 209 | 1.0 | 2.0 | 0.00 | 0.00 | 0.00 | 90 | 1013.6 |
| 20260903104253 | 78 | 164 | 1.0 | 1.0 | 0.00 | 0.00 | 0.00 | 90 | 1013.4 |
| 20260903101252 | 78 | 43 | 1.0 | 2.0 | 0.00 | 0.00 | 0.00 | 90 | 1013.4 |
| 20260903094253 | 80 | 334 | 0.0 | 0.0 | 0.00 | 0.00 | 0.00 | 84 | 1013.6 |
| 20260903091249 | 80 | 282 | 0.0 | 0.0 | 0.00 | 0.00 | 0.00 | 83 | 1013.2 |
| 20260903084248 | 80 | 152 | 2.0 | 2.0 | 0.00 | 0.00 | 0.00 | 85 | 1013.3 |
| 20260903081246 | 80 | 174 | 1.0 | 1.0 | 0.00 | 0.00 | 0.00 | 86 | 1013.1 |
| 20260903074246 | 80 | 210 | 0.0 | 1.0 | 0.00 | 0.00 | 0.00 | 86 | 1013.0 |
| 20260903071244 | 80 | 163 | 0.0 | 1.0 | 0.00 | 0.00 | 0.00 | 86 | 1013.3 |
| 20260903064240 | 80 | 23 | 2.0 | 2.0 | 0.00 | 0.00 | 0.00 | 85 | 1013.3 |
| 20260903061239 | 80 | 69 | 1.0 | 2.0 | 0.00 | 0.00 | 0.00 | 84 | 1013.2 |
| 20260903054233 | 80 | 339 | 1.0 | 2.0 | 0.00 | 0.00 | 0.00 | 83 | 1013.8 |
| 20260903051230 | 81 | 342 | 3.0 | 3.0 | 0.00 | 0.00 | 0.00 | 80 | 1013.7 |
| 20260903044230 | 82 | 66 | 1.0 | 2.0 | 0.00 | 0.00 | 0.00 | 77 | 1013.8 |
| 20260903041224 | 83 | 50 | 3.0 | 5.0 | 0.00 | 0.00 | 0.00 | 74 | 1013.8 |
| 20260903034224 | 84 | 25 | 2.0 | 3.0 | 0.00 | 0.00 | 0.00 | 72 | 1013.7 |
| 20260903031222 | 85 | 23 | 2.0 | 3.0 | 0.00 | 0.00 | 0.00 | 70 | 1013.7 |
| 20260903024222 | 86 | 56 | 2.0 | 5.0 | 0.00 | 0.00 | 0.00 | 67 | 1013.6 |
| 20260903021219 | 88 | 6 | 1.0 | 2.0 | 0.00 | 0.00 | 0.00 | 64 | 1013.2 |
| 20260903014217 | 90 | 49 | 0.0 | 0.0 | 0.00 | 0.00 | 0.00 | 60 | 1012.7 |
| 20260903011215 | 91 | 355 | 1.0 | 2.0 | 0.00 | 0.00 | 0.00 | 57 | 1012.1 |
| 20260903004214 | 93 | 150 | 2.0 | 2.0 | 0.00 | 0.00 | 0.00 | 56 | 1012.2 |
| 20260903001212 | 93 | 30 | 2.0 | 3.0 | 0.00 | 0.00 | 0.00 | 57 | 1012.0 |
| 20260902234211 | 92 | 358 | 1.0 | 1.0 | 0.00 | 0.00 | 0.00 | 59 | 1011.9 |
| 20260902231211 | 91 | 237 | 1.0 | 1.0 | 0.00 | 0.00 | 0.00 | 63 | 1011.8 |
| 20260902224206 | 98 | 65 | 3.0 | 7.0 | 0.00 | 0.00 | 0.00 | 51 | 1011.6 |
| 20260902221206 | 99 | 93 | 3.0 | 5.0 | 0.00 | 0.00 | 0.00 | 45 | 1011.3 |
| 20260902214204 | 98 | 128 | 3.0 | 6.0 | 0.00 | 0.00 | 0.00 | 46 | 1011.7 |
| 20260902211159 | 99 | 69 | 3.0 | 5.0 | 0.00 | 0.00 | 0.00 | 45 | 1011.9 |
| 20260902204155 | 100 | 322 | 7.0 | 8.0 | 0.00 | 0.00 | 0.00 | 45 | 1012.3 |
| 20260902201156 | 98 | 47 | 3.0 | 5.0 | 0.00 | 0.00 | 0.00 | 46 | 1012.8 |
| 20260902194154 | 100 | 325 | 3.0 | 5.0 | 0.00 | 0.00 | 0.00 | 45 | 1013.5 |
| 20260902191154 | 97 | 330 | 1.0 | 2.0 | 0.00 | 0.00 | 0.00 | 50 | 1013.9 |